Weather reports worldwide

Advertisment
Magilligan, United Kingdom (3907): temperature & dewpoint: 05.12.2018 23:00:00 - 11.12.2018 23:00:00 (GMT)Magilligan, United Kingdom (3907): temperature -20cm & temperature -100cm: 05.12.2018 23:00:00 - 11.12.2018 23:00:00 (GMT)Magilligan, United Kingdom (3907): wind speed & gusts: 05.12.2018 23:00:00 - 11.12.2018 23:00:00 (GMT)Magilligan, United Kingdom (3907): wind direction: 05.12.2018 23:00:00 - 11.12.2018 23:00:00 (GMT)Magilligan, United Kingdom (3907): reduced air pressure: 05.12.2018 23:00:00 - 11.12.2018 23:00:00 (GMT)Magilligan, United Kingdom (3907): visibility: 05.12.2018 23:00:00 - 11.12.2018 23:00:00 (GMT)Magilligan, United Kingdom (3907): sunshine duration: 05.12.2018 23:00:00 - 11.12.2018 23:00:00 (GMT)Magilligan, United Kingdom (3907): precipitation: 05.12.2018 23:00:00 - 11.12.2018 23:00:00 (GMT)
Date & Time tt [°C] td [°C] tt -20cm [°C] tt -100cm [°C] ff [km/h] ff [kn] fx [km/h] fx [kn] dd ppp [hPa] vv [km] sd [min] rr [mm]
11.12.2018 23:00:00 10,3 7,9 - - 37 20 54 29 SSE 1013,2 13 0 0,0
11.12.2018 22:00:00 10,3 7,4 - - 39 21 61 33 SSE 1013,2 23 0 0,0
11.12.2018 21:00:00 10,2 7,2 - - 41 22 57 31 SSE 1012,8 40 0 0,0
11.12.2018 20:00:00 10,8 7,0 - - 46 25 59 32 SSE 1012,8 40 0 0,0
11.12.2018 19:00:00 10,8 7,7 - - 41 22 54 29 SSE 1013,1 50 0 0,0
11.12.2018 18:00:00 10,2 8,4 - - 28 15 52 28 S 1013,8 18 0 0,0
11.12.2018 17:00:00 10,7 7,7 - - 37 20 61 33 SSE 1013,6 45 0 0,0
11.12.2018 16:00:00 10,1 7,9 - - 34 18 55 30 S 1013,9 35 0 0,0
11.12.2018 15:00:00 10,4 8,2 - - 24 13 54 29 S 1014,2 27 0 -
11.12.2018 14:00:00 10,3 8,2 - - 22 12 - - S 1014,8 26 0 0,0
11.12.2018 13:00:00 11,0 8,1 - - 9 5 - - N 1015,4 40 6 0,0
11.12.2018 12:00:00 10,7 8,0 - - 5 3 - - S 1016,2 35 0 0,0
11.12.2018 11:00:00 10,3 7,4 - - 5 3 - - NNW 1016,6 45 0 0,0
11.12.2018 10:00:00 9,4 7,7 - - 8 4 - - N 1016,4 45 0 0,0
11.12.2018 09:00:00 10,2 7,6 8,4 8,2 4 2 - - NW 1016,9 35 0 0,0
11.12.2018 08:00:00 8,6 7,1 - - 8 4 - - NW 1016,6 30 0 0,0
11.12.2018 07:00:00 8,4 6,7 - - 8 4 - - WSW 1017,0 30 0 0,0
11.12.2018 06:00:00 9,0 7,6 - - 9 5 - - SW 1017,5 30 0 0,0
11.12.2018 05:00:00 9,3 7,8 - - 13 7 - - WSW 1017,8 40 0 0,0
11.12.2018 04:00:00 9,3 7,5 - - 16 9 - - SSW 1018,8 30 0 0,0
11.12.2018 03:00:00 9,1 7,7 - - 16 9 - - SSW 1019,3 26 0 0,0
11.12.2018 02:00:00 7,8 6,5 - - 15 8 - - SSW 1019,9 16 0 0,0
11.12.2018 01:00:00 8,0 7,3 - - 9 5 - - SSW 1020,6 21 0 0,0
11.12.2018 00:00:00 8,3 7,1 - - 13 7 - - S 1020,8 27 - 0,0
10.12.2018 23:00:00 8,4 7,1 - - 13 7 - - S 1021,4 23 0 0,0
10.12.2018 22:00:00 8,4 7,1 - - 18 10 - - S 1022,1 16 0 0,0
10.12.2018 21:00:00 8,0 6,5 - - 18 10 - - S 1022,2 18 0 0,0
10.12.2018 20:00:00 8,1 6,5 - - 18 10 - - SSW 1022,5 29 0 0,0
10.12.2018 19:00:00 8,3 5,8 - - 21 11 - - SSW 1023,1 26 0 0,0
10.12.2018 18:00:00 8,1 5,3 - - 15 8 - - S 1023,2 28 0 0,0
10.12.2018 17:00:00 7,5 5,5 - - 15 8 - - S 1023,5 16 0 0,2
10.12.2018 16:00:00 8,2 4,9 - - 16 9 - - S 1023,8 30 0 0,0
10.12.2018 15:00:00 7,2 5,4 - - 5 3 - - SE 1024,3 29 0 0,0
10.12.2018 14:00:00 7,5 5,0 - - 5 3 - - ESE 1025,1 27 0 0,0
10.12.2018 13:00:00 7,5 5,2 - - 8 4 - - S 1025,3 26 0 0,0
10.12.2018 12:00:00 7,3 5,3 - - 11 6 - - SSW 1025,9 30 0 0,0
10.12.2018 11:00:00 6,6 4,9 - - 9 5 - - SSW 1025,8 30 0 0,0
10.12.2018 10:00:00 6,1 4,5 - - 13 7 - - SSW 1026,1 35 0 0,0
10.12.2018 09:00:00 6,0 4,2 8,5 8,2 11 6 - - SSW 1025,7 35 0 0,0
10.12.2018 08:00:00 6,0 4,4 - - 15 8 - - SSW 1025,5 35 0 0,0
10.12.2018 07:00:00 5,5 4,4 - - 15 8 - - SSW 1025,0 25 0 0,0
10.12.2018 06:00:00 5,9 4,9 - - 11 6 - - SSW 1025,1 30 0 0,2
10.12.2018 05:00:00 6,2 5,4 - - 15 8 - - SSW 1024,6 15 0 0,0
10.12.2018 04:00:00 6,9 5,7 - - 15 8 - - W 1024,3 35 0 0,0
10.12.2018 03:00:00 6,3 5,0 - - 15 8 - - W 1024,0 45 0 0,2
10.12.2018 02:00:00 7,2 5,5 - - 22 12 - - W 1023,4 13 0 0,0
10.12.2018 01:00:00 6,9 5,5 - - 21 11 - - WSW 1023,0 50 0 0,2
10.12.2018 00:00:00 7,2 5,7 - - 16 9 - - WSW 1022,7 35 - 0,2
09.12.2018 23:00:00 7,6 6,0 - - 13 7 - - WSW 1021,7 24 0 0,0
09.12.2018 22:00:00 7,4 5,9 - - 22 12 - - W 1021,3 21 0 0,4
09.12.2018 21:00:00 7,0 5,8 - - 18 10 - - W 1020,6 50 0 0,8
09.12.2018 20:00:00 7,0 5,7 - - 18 10 - - WSW 1019,7 30 0 1,2
09.12.2018 19:00:00 6,9 5,5 - - 21 11 - - WSW 1019,1 30 0 0,0
09.12.2018 18:00:00 7,1 5,8 - - 18 10 - - WSW 1018,2 29 0 0,0
09.12.2018 17:00:00 6,4 5,2 - - 18 10 - - WSW 1017,3 30 0 0,0
09.12.2018 16:00:00 7,0 5,9 - - 5 3 - - W 1016,3 50 0 0,4
09.12.2018 15:00:00 6,9 5,6 - - 13 7 - - W 1015,3 45 0 1,0
09.12.2018 14:00:00 8,1 6,4 - - 18 10 - - W 1014,5 13 24 0,2
09.12.2018 13:00:00 7,4 5,1 - - 15 8 - - W 1013,6 50 0 0,0
09.12.2018 12:00:00 7,6 6,5 - - 13 7 - - SW 1013,0 28 0 0,0
09.12.2018 11:00:00 7,8 6,3 - - 11 6 - - WSW 1012,1 20 0 0,0
09.12.2018 10:00:00 7,4 6,0 - - 5 3 - - W 1010,7 24 0 0,0
09.12.2018 09:00:00 6,7 4,9 8,7 8,2 8 4 - - W 1009,4 30 0 0,0
09.12.2018 08:00:00 4,7 2,9 - - 4 2 - - SSE 1007,4 29 0 0,0
09.12.2018 07:00:00 7,5 5,7 - - 5 3 - - W 1005,8 35 0 0,0
09.12.2018 06:00:00 7,8 6,7 - - 9 5 - - NW 1003,8 35 0 0,2
09.12.2018 05:00:00 6,7 5,7 - - 8 4 - - NW 1001,5 45 0 0,6
09.12.2018 04:00:00 6,7 6,0 - - 13 7 - - NW 999,3 40 0 0,0
09.12.2018 03:00:00 6,8 6,2 - - 13 7 - - WNW 997,3 40 0 0,0
09.12.2018 02:00:00 6,6 5,9 - - 15 8 - - WNW 995,6 50 0 1,6
09.12.2018 01:00:00 7,1 6,8 - - 5 3 - - WNW 994,0 6 0 0,6
09.12.2018 00:00:00 6,4 6,0 - - 8 4 - - SSW 992,3 25 - 2,2
08.12.2018 23:00:00 6,8 6,1 - - 9 5 - - WNW 991,7 3,1 0 2,8
08.12.2018 22:00:00 7,1 6,1 - - 11 6 - - W 991,3 8 0 1,2
08.12.2018 21:00:00 7,3 6,7 - - 11 6 - - WSW 991,1 13 0 3,6
08.12.2018 20:00:00 7,2 6,4 - - 18 10 - - WSW 990,9 10 0 1,0
08.12.2018 19:00:00 7,5 5,9 - - 29 16 - - WSW 990,7 35 0 0,6
08.12.2018 18:00:00 7,4 6,0 - - 28 15 48 26 WSW 990,4 24 0 0,4
08.12.2018 17:00:00 7,8 6,3 - - 28 15 48 26 SW 990,2 19 0 0,2
08.12.2018 16:00:00 8,0 6,3 - - 35 19 50 27 WSW 990,0 22 0 0,8
08.12.2018 15:00:00 8,0 6,9 - - 37 20 50 27 WSW 990,1 3,6 0 0,6
08.12.2018 14:00:00 8,4 6,3 - - 29 16 - - WSW 990,2 29 12 2,2
08.12.2018 13:00:00 7,7 6,5 - - 18 10 - - SW 991,0 22 0 0,2
08.12.2018 12:00:00 7,0 6,2 - - 13 7 - - SW 992,3 6 0 0,8
08.12.2018 11:00:00 7,3 5,8 - - 22 12 - - SSW 993,9 12 0 0,4
08.12.2018 10:00:00 7,6 5,6 - - 21 11 - - SSW 994,7 18 0 0,0
08.12.2018 09:00:00 7,4 6,2 8,7 8,2 24 13 - - SW 996,0 24 0 0,0
08.12.2018 08:00:00 7,8 6,3 - - 26 14 - - SW 996,8 24 0 0,0
08.12.2018 07:00:00 8,1 5,9 - - 26 14 52 28 SW 996,9 20 0 0,0
08.12.2018 06:00:00 8,4 5,7 - - 31 17 55 30 W 996,9 19 0 0,0
08.12.2018 05:00:00 8,5 4,6 - - 35 19 57 31 W 996,7 18 0 0,0
08.12.2018 04:00:00 8,7 5,4 - - 41 22 63 34 W 996,2 16 0 0,0
08.12.2018 03:00:00 8,9 5,6 - - 42 23 63 34 W 995,4 24 0 0,2
08.12.2018 02:00:00 9,0 5,9 - - 44 24 68 37 W 994,3 22 0 0,0
08.12.2018 01:00:00 8,5 5,9 - - 44 24 70 38 W 993,2 25 0 0,0
08.12.2018 00:00:00 8,8 5,1 - - 48 26 78 42 WNW 992,0 20 - 0,2
07.12.2018 23:00:00 9,0 7,5 - - 48 26 80 43 W 990,2 7 0 0,2
07.12.2018 22:00:00 9,3 7,1 - - 55 30 80 43 W 989,1 6 0 1,4
07.12.2018 21:00:00 8,7 7,1 - - 48 26 74 40 WSW 988,7 10 0 0,4
07.12.2018 20:00:00 8,8 6,5 - - 48 26 70 38 WSW 989,0 11 0 0,8
07.12.2018 19:00:00 8,0 6,5 - - 46 25 65 35 WSW 989,1 12 0 1,2
07.12.2018 18:00:00 7,9 6,0 - - 41 22 76 41 SW 989,3 11 0 0,2
07.12.2018 17:00:00 7,7 6,1 - - 48 26 70 38 WSW 989,6 5 0 1,0
07.12.2018 16:00:00 7,5 5,5 - - 44 24 70 38 SW 989,3 13 0 0,0
07.12.2018 15:00:00 6,5 4,4 - - 46 25 65 35 SW 989,9 16 0 0,6
07.12.2018 14:00:00 6,1 4,5 - - 42 23 63 34 WSW 990,7 8 6 0,6
07.12.2018 13:00:00 7,0 3,7 - - 41 22 61 33 SW 990,6 30 48 0,0
07.12.2018 12:00:00 5,9 4,1 - - 39 21 61 33 SW 990,7 15 0 0,4
07.12.2018 11:00:00 5,6 3,7 - - 41 22 70 38 SW 991,4 6 0 0,8
07.12.2018 10:00:00 5,3 2,7 - - 39 21 76 41 SSW 991,0 24 0 0,2
07.12.2018 09:00:00 6,4 2,9 8,7 8,0 46 25 76 41 SW 991,0 24 0 0,0
07.12.2018 08:00:00 6,2 3,3 - - 46 25 70 38 SW 990,6 22 0 0,4
07.12.2018 07:00:00 6,6 3,8 - - 50 27 68 37 SW 990,6 14 0 0,0
07.12.2018 06:00:00 6,8 3,0 - - 44 24 68 37 SW 990,1 25 0 0,2
07.12.2018 05:00:00 7,7 4,3 - - 46 25 74 40 SW 990,5 10 0 0,0
07.12.2018 04:00:00 8,3 4,3 - - 42 23 67 36 SW 990,7 13 0 0,0
07.12.2018 03:00:00 9,6 5,7 - - 59 32 81 44 SW 990,8 10 0 0,0
07.12.2018 02:00:00 11,5 9,3 - - 37 20 57 31 SSW 989,9 50 0 0,2
07.12.2018 01:00:00 11,4 9,2 - - 39 21 67 36 S 990,7 50 0 0,0
07.12.2018 00:00:00 9,8 7,8 - - 28 15 46 25 S 993,0 50 - 0,0
06.12.2018 23:00:00 8,5 7,0 - - 29 16 - - S 996,6 8 0 0,6
06.12.2018 22:00:00 9,5 6,2 - - 18 10 - - S 998,6 19 0 0,0
06.12.2018 21:00:00 9,0 6,8 - - 21 11 - - S 1001,3 14 0 0,0
06.12.2018 20:00:00 9,0 6,4 - - 18 10 - - S 1002,6 17 0 0,0
06.12.2018 19:00:00 8,2 6,2 - - 15 8 - - S 1003,9 13 0 0,0
06.12.2018 18:00:00 8,6 6,8 - - 16 9 - - S 1005,0 12 0 0,0
06.12.2018 17:00:00 8,8 6,9 - - 18 10 - - SW 1004,8 14 0 0,0
06.12.2018 16:00:00 8,8 6,7 - - 18 10 - - SW 1004,6 16 0 0,0
06.12.2018 15:00:00 9,7 7,3 - - 11 6 - - SSW 1004,7 14 0 0,0
06.12.2018 14:00:00 9,9 8,0 - - 22 12 - - SW 1004,4 10 0 0,0
06.12.2018 13:00:00 10,3 8,4 - - 28 15 - - SW 1004,1 12 0 0,0
06.12.2018 12:00:00 10,2 8,5 - - 24 13 - - SW 1003,6 14 0 0,0
06.12.2018 11:00:00 10,2 8,7 - - 28 15 - - SW 1002,6 20 0 0,0
06.12.2018 10:00:00 10,3 9,8 - - 28 15 - - SW 1002,1 40 0 0,2
06.12.2018 09:00:00 11,6 10,5 7,7 8,2 29 16 - - SSW 1001,0 50 0 0,0
06.12.2018 08:00:00 11,7 10,0 - - 31 17 - - SW 1000,6 50 0 0,0
06.12.2018 07:00:00 11,5 9,8 - - 29 16 - - SSW 1000,5 50 0 0,0
06.12.2018 06:00:00 10,7 9,2 - - 28 15 46 25 SSW 1000,5 30 0 0,6
06.12.2018 05:00:00 11,2 9,7 - - 29 16 - - S 1001,2 45 0 0,0
06.12.2018 04:00:00 10,5 9,2 - - 28 15 - - S 1002,5 50 0 0,0
06.12.2018 03:00:00 9,8 8,4 - - 26 14 - - S 1003,0 30 0 0,0
06.12.2018 02:00:00 9,2 7,7 - - 16 9 - - S 1004,1 50 0 0,0
06.12.2018 01:00:00 8,3 6,9 - - 16 9 - - S 1005,1 35 0 0,0
06.12.2018 00:00:00 8,2 6,7 - - 15 8 - - S 1006,1 50 - 0,0
05.12.2018 23:00:00 7,0 5,9 - - 15 8 - - S 1007,5 18 0 0,0

tt = temperature
td = dewpoint
tt -20cm = temperature -20cm
tt -100cm = temperature -100cm
ff = wind speed
fx = gusts
dd = wind direction
ppp = reduced air pressure
vv = visibility
sd = sunshine duration
rr = precipitation

Next stations